Location: Qazi Observatory
(41.6337°N, 88.1517°W)
Time: 21:50:56
(UTC-05:00)

Amateur Radio Satellites - All Passes

Search period start: 15 September 2014 21:20
Search period end: 16 September 2014 21:20
Location: Qazi Observatory, 41.6337°N, 88.1517°W

Satellite Date Start Highest point End Downlink Frequencies (MHz)
Time Altitude Azimuth
Sapphire 15 Sep 21:27:16 21:31:50 27° 48° (NE) 21:36:23 437.095 MHz 1200 baud AX-25 AFSK
STRAND 1 15 Sep 21:36:00 21:37:52 12° 302° (WNW) 21:39:44 ?
PCSat 15 Sep 21:54:28 21:59:40 44° 54° (NE) 22:04:49 145.825 MHz
FUNcube-1 15 Sep 21:57:25 22:01:31 42° 71° (ENE) 22:05:45 145.950 - 145.970 MHz USB
Oscar 11 15 Sep 22:19:24 22:23:32 42° 262° (W) 22:27:43 145.825 FM, Beacon 2401.500 USB
KITSAT 1 15 Sep 22:21:36 22:28:37 32° 318° (NW) 22:35:41 435.175 FM
UKube-1 15 Sep 22:32:46 22:36:05 21° 265° (W) 22:39:25 145.840 MHz, 145.915 MHz
SO-50 15 Sep 22:35:42 22:38:44 18° 110° (ESE) 22:41:48 436.795 FM
HO-68 15 Sep 23:08:09 23:10:34 12° 273° (W) 23:13:00 435.675 MHz FM
Sapphire 15 Sep 23:10:17 23:15:31 50° 247° (WSW) 23:20:43 437.095 MHz 1200 baud AX-25 AFSK
FUNcube-1 15 Sep 23:35:12 23:38:08 18° 268° (W) 23:41:07 145.950 - 145.970 MHz USB
PCSat 15 Sep 23:38:20 23:42:50 27° 252° (WSW) 23:47:19 145.825 MHz
SO-50 16 Sep 00:14:30 00:18:52 51° 308° (NW) 00:23:22 436.795 FM
KITSAT 1 16 Sep 00:23:54 00:27:10 13° 346° (NNW) 00:30:26 435.175 FM
UOSAT-12 16 Sep 00:36:01 00:39:46 25° 112° (ESE) 00:43:35 437.025 FM, 437.400 FM
Oscar 16 16 Sep 01:33:48 01:37:54 23° 94° (E) 01:41:57 437.025 USB, Beacon 2401.1428
ITAMSAT 1 16 Sep 02:08:47 02:12:37 20° 93° (E) 02:16:26 435.822 SSB
Uribyol 2 16 Sep 02:13:47 02:18:00 24° 94° (E) 02:22:12 436.500 FM
UOSAT-12 16 Sep 02:15:20 02:19:42 40° 310° (NW) 02:24:10 437.025 FM, 437.400 FM
AO-Echo 16 Sep 02:19:40 02:23:50 29° 96° (E) 02:28:05 ?
KITSAT 1 16 Sep 02:23:03 02:26:57 14° 18° (NNE) 02:30:50 435.175 FM
Saudisat 1A 16 Sep 02:24:18 02:28:16 31° 48° (NE) 02:32:12 436.775 MHz
Oscar 19 16 Sep 02:34:10 02:39:23 83° 104° (ESE) 02:44:32 437.125 CW, 437.150 USB
AO-27 16 Sep 02:41:53 02:46:49 42° 99° (E) 02:51:45 436.795 MHz FM
Gurwin Techsat 1B 16 Sep 03:11:34 03:16:31 38° 97° (E) 03:21:25 435.225 FM
Oscar 16 16 Sep 03:12:31 03:17:25 43° 290° (WNW) 03:22:16 437.025 USB, Beacon 2401.1428
JAS-1B 16 Sep 03:17:32 03:23:27 87° 104° (ESE) 03:29:08 435.800 - 435.900 CW/SSB
OPAL 16 Sep 03:20:18 03:23:47 19° 59° (ENE) 03:27:18 ?
AO-7 16 Sep 03:46:47 03:52:03 18° 90° (E) 03:57:17 29.400 - 29.500 MHz
ITAMSAT 1 16 Sep 03:47:21 03:52:22 50° 289° (WNW) 03:57:22 435.822 SSB
TMSAT-1 16 Sep 03:51:04 03:56:21 65° 102° (ESE) 04:01:37 436.925 FM
ISS 16 Sep 03:51:27 03:54:28 32° 137° (SE) 03:57:29 145.800 FM
Uribyol 2 16 Sep 03:52:43 03:57:37 42° 291° (WNW) 04:02:30 436.500 FM
AO-Echo 16 Sep 03:58:24 04:02:35 31° 292° (WNW) 04:06:51 ?
Saudisat 1A 16 Sep 04:03:56 04:07:48 30° 246° (WSW) 04:11:38 436.775 MHz
Oscar 19 16 Sep 04:15:34 04:18:00 14° 301° (WNW) 04:20:25 437.125 CW, 437.150 USB
KITSAT 1 16 Sep 04:17:43 04:25:08 38° 45° (NE) 04:32:30 435.175 FM
AO-27 16 Sep 04:21:55 04:26:05 25° 295° (WNW) 04:30:16 436.795 MHz FM
RS-15 16 Sep 04:35:44 04:46:15 52° 112° (ESE) 04:56:35 29.354 - 29.394 USB, Beacon 29.352 USB
PANSAT 16 Sep 04:38:13 04:39:12 11° 174° (S) 04:40:11 not established
Gurwin Techsat 1B 16 Sep 04:51:51 04:56:18 28° 294° (WNW) 05:00:45 435.225 FM
OPAL 16 Sep 04:57:03 05:02:09 62° 256° (WSW) 05:07:20 ?
Uosat F 16 Sep 05:04:20 05:09:17 56° 101° (E) 05:14:12 435.120 FM
JAS-1B 16 Sep 05:10:35 05:13:11 13° 306° (NW) 05:15:45 435.800 - 435.900 CW/SSB
ISS 16 Sep 05:28:04 05:31:10 34° 334° (NNW) 05:34:15 145.800 FM
Oscar 10/S400 16 Sep 05:30:24 05:54:19 11° 258° (WSW) 06:24:04 145.825 - 145.975 CW/USB, Beacon 145.810 USB
TMSAT-1 16 Sep 05:32:20 05:35:44 18° 299° (WNW) 05:39:07 436.925 FM
STRAND 1 16 Sep 05:33:37 05:36:55 18° 62° (ENE) 05:40:13 ?
Hamsat 16 Sep 05:37:14 05:38:57 12° 90° (E) 05:40:39 145.90 MHz
AO-7 16 Sep 05:37:30 05:45:50 90° 108° (ESE) 05:54:08 29.400 - 29.500 MHz
KITSAT 1 16 Sep 06:13:01 06:20:52 57° 246° (WSW) 06:28:40 435.175 FM
PANSAT 16 Sep 06:17:59 06:18:33 10° 187° (S) 06:19:08 not established
JAS-2 16 Sep 06:38:39 06:44:28 64° 102° (ESE) 06:51:01 435.800 - 435.900 CW/SSB, 435.910 FM
Uosat F 16 Sep 06:44:14 06:47:38 19° 298° (WNW) 06:51:02 435.120 FM
RS-15 16 Sep 06:48:03 06:58:38 50° 315° (NW) 07:09:13 29.354 - 29.394 USB, Beacon 29.352 USB
SO-50 16 Sep 07:05:47 07:09:35 23° 43° (NE) 07:13:25 436.795 FM
ISS 16 Sep 07:06:32 07:08:37 15° 354° (N) 07:10:42 145.800 FM
STRAND 1 16 Sep 07:10:36 07:15:37 60° 259° (WSW) 07:20:40 ?
Hamsat 16 Sep 07:11:04 07:15:17 57° 286° (WNW) 07:19:25 145.90 MHz
AO-7 16 Sep 07:31:42 07:37:35 22° 309° (NW) 07:43:27 29.400 - 29.500 MHz
SO-67 16 Sep 08:11:48 08:15:15 72° 283° (WNW) 08:18:41 435.3500 MHz FM
JAS-2 16 Sep 08:24:59 08:29:11 21° 297° (WNW) 08:33:43 435.800 - 435.900 CW/SSB, 435.910 FM
HO-68 16 Sep 08:43:19 08:48:27 21° 92° (E) 08:53:34 435.675 MHz FM
ISS 16 Sep 08:43:52 08:46:18 19° 14° (NNE) 08:48:44 145.800 FM
SO-50 16 Sep 08:45:46 08:50:28 55° 242° (WSW) 08:55:13 436.795 FM
MaSat-1 16 Sep 08:53:10 08:57:48 39° 108° (ESE) 09:02:27 437.345 MHz
UOSAT-12 16 Sep 09:04:50 09:08:52 27° 45° (NE) 09:12:50 437.025 FM, 437.400 FM
RS-15 16 Sep 09:06:26 09:14:30 22° 347° (NNW) 09:22:40 29.354 - 29.394 USB, Beacon 29.352 USB
Oscar 11 16 Sep 10:06:52 10:10:48 33° 97° (E) 10:14:42 145.825 FM, Beacon 2401.500 USB
UKube-1 16 Sep 10:19:30 10:23:50 62° 102° (ESE) 10:28:08 145.840 MHz, 145.915 MHz
ISS 16 Sep 10:20:11 10:23:30 67° 33° (NNE) 10:26:49 145.800 FM
HO-68 16 Sep 10:29:37 10:36:47 74° 289° (WNW) 10:43:55 435.675 MHz FM
MaSat-1 16 Sep 10:30:17 10:34:41 30° 305° (NW) 10:39:03 437.345 MHz
UOSAT-12 16 Sep 10:44:42 10:49:10 42° 244° (WSW) 10:53:32 437.025 FM, 437.400 FM
FUNcube-1 16 Sep 11:22:14 11:26:54 90° 117° (ESE) 11:31:30 145.950 - 145.970 MHz USB
RS-15 16 Sep 11:23:18 11:32:06 26° 23° (NNE) 11:41:04 29.354 - 29.394 USB, Beacon 29.352 USB
Oscar 11 16 Sep 11:43:24 11:46:48 23° 293° (WNW) 11:50:12 145.825 FM, Beacon 2401.500 USB
UKube-1 16 Sep 11:57:25 11:59:31 13° 298° (WNW) 12:01:36 145.840 MHz, 145.915 MHz
ISS 16 Sep 11:57:57 11:59:52 15° 229° (SW) 12:01:46 145.800 FM
Sapphire 16 Sep 12:10:28 12:14:20 20° 106° (ESE) 12:18:14 437.095 MHz 1200 baud AX-25 AFSK
JAS-1B 16 Sep 12:14:21 12:19:12 17° 57° (ENE) 12:23:38 435.800 - 435.900 CW/SSB
Oscar 19 16 Sep 12:14:30 12:17:38 16° 61° (ENE) 12:20:46 437.125 CW, 437.150 USB
HO-68 16 Sep 12:19:32 12:23:17 15° 309° (NW) 12:27:03 435.675 MHz FM
PCSat 16 Sep 12:36:36 12:41:32 38° 111° (ESE) 12:46:30 145.825 MHz
Oscar 16 16 Sep 12:50:47 12:55:27 35° 68° (ENE) 13:00:08 437.025 USB, Beacon 2401.1428
FUNcube-1 16 Sep 13:01:44 13:02:32 10° 300° (WNW) 13:03:20 145.950 - 145.970 MHz USB
ITAMSAT 1 16 Sep 13:26:52 13:31:24 32° 67° (ENE) 13:35:57 435.822 SSB
Uribyol 2 16 Sep 13:31:47 13:36:30 37° 68° (ENE) 13:41:15 436.500 FM
AO-Echo 16 Sep 13:33:01 13:37:25 38° 70° (ENE) 13:41:46 ?
TMSAT-1 16 Sep 13:35:27 13:38:09 14° 59° (ENE) 13:40:51 436.925 FM
RS-15 16 Sep 13:36:02 13:47:05 66° 52° (NE) 13:58:33 29.354 - 29.394 USB, Beacon 29.352 USB
Oscar 19 16 Sep 13:51:14 13:56:23 69° 258° (WSW) 14:01:36 437.125 CW, 437.150 USB
Sapphire 16 Sep 13:52:00 13:57:18 57° 303° (WNW) 14:02:39 437.095 MHz 1200 baud AX-25 AFSK
JAS-1B 16 Sep 14:00:01 14:08:56 78° 73° (ENE) 14:16:24 435.800 - 435.900 CW/SSB
AO-27 16 Sep 14:00:12 14:05:19 66° 73° (ENE) 14:10:27 436.795 MHz FM
PCSat 16 Sep 14:20:06 14:24:58 33° 309° (NW) 14:29:52 145.825 MHz
Oscar 16 16 Sep 14:30:20 14:34:48 29° 265° (W) 14:39:19 437.025 USB, Beacon 2401.1428
Gurwin Techsat 1B 16 Sep 14:32:47 14:38:00 61° 72° (ENE) 14:43:14 435.225 FM
Uosat F 16 Sep 14:44:13 14:44:49 10° 57° (ENE) 14:45:25 435.120 FM
AO-7 16 Sep 14:45:52 14:52:38 29° 56° (NE) 14:59:23 29.400 - 29.500 MHz
ITAMSAT 1 16 Sep 15:06:17 15:10:50 32° 264° (W) 15:15:26 435.822 SSB
Uribyol 2 16 Sep 15:11:43 15:16:02 27° 265° (W) 15:20:23 436.500 FM
TMSAT-1 16 Sep 15:12:04 15:17:22 81° 257° (WSW) 15:22:41 436.925 FM
Oscar 10/S400 16 Sep 15:12:07 15:27:46 25° 146° (SSE) 15:44:25 145.825 - 145.975 CW/USB, Beacon 145.810 USB
AO-Echo 16 Sep 15:12:37 15:16:19 22° 266° (W) 15:19:59 ?
Sapphire 16 Sep 15:40:02 15:41:57 12° 325° (NW) 15:43:52 437.095 MHz 1200 baud AX-25 AFSK
AO-27 16 Sep 15:42:24 15:45:17 15° 269° (W) 15:48:12 436.795 MHz FM
RS-15 16 Sep 15:49:03 15:58:48 37° 253° (WSW) 16:08:55 29.354 - 29.394 USB, Beacon 29.352 USB
JAS-1B 16 Sep 15:53:24 15:59:52 22° 267° (W) 16:05:41 435.800 - 435.900 CW/SSB
Gurwin Techsat 1B 16 Sep 16:15:01 16:18:22 17° 269° (W) 16:21:45 435.225 FM
Uosat F 16 Sep 16:17:46 16:22:45 79° 74° (ENE) 16:27:46 435.120 FM
Hamsat 16 Sep 16:32:20 16:33:06 10° 61° (ENE) 16:33:52 145.90 MHz
AO-7 16 Sep 16:36:29 16:44:46 69° 255° (WSW) 16:53:04 29.400 - 29.500 MHz
JAS-2 16 Sep 16:53:15 16:57:25 24° 65° (ENE) 17:01:31 435.800 - 435.900 CW/SSB, 435.910 FM
OPAL 16 Sep 17:07:04 17:11:46 34° 99° (E) 17:16:23 ?
Uosat F 16 Sep 18:00:28 18:02:07 12° 271° (W) 18:03:46 435.120 FM
Hamsat 16 Sep 18:04:01 18:08:23 81° 258° (WSW) 18:12:46 145.90 MHz
Saudisat 1A 16 Sep 18:09:48 18:14:09 65° 120° (ESE) 18:18:32 436.775 MHz
AO-7 16 Sep 18:36:08 18:38:57 12° 273° (W) 18:41:48 29.400 - 29.500 MHz
JAS-2 16 Sep 18:37:20 18:42:22 40° 262° (W) 18:47:14 435.800 - 435.900 CW/SSB, 435.910 FM
SO-67 16 Sep 18:44:54 18:48:03 34° 73° (ENE) 18:51:14 435.3500 MHz FM
OPAL 16 Sep 18:46:02 18:50:33 31° 296° (WNW) 18:55:00 ?
MaSat-1 16 Sep 18:46:28 18:50:28 75° 63° (ENE) 18:53:50 437.345 MHz
KITSAT 1 16 Sep 18:48:32 18:54:10 21° 103° (ESE) 18:59:48 435.175 FM
HO-68 16 Sep 19:13:44 19:18:10 18° 53° (NE) 19:22:36 435.675 MHz FM
STRAND 1 16 Sep 19:20:59 19:25:54 45° 99° (E) 19:30:48 ?
Saudisat 1A 16 Sep 19:51:08 19:54:09 18° 319° (NW) 19:57:11 436.775 MHz
SO-67 16 Sep 20:19:37 20:21:14 13° 268° (W) 20:22:51 435.3500 MHz FM
KITSAT 1 16 Sep 20:40:30 20:48:36 83° 301° (WNW) 20:56:45 435.175 FM
Sapphire 16 Sep 20:57:07 21:01:12 21° 44° (NE) 21:05:15 437.095 MHz 1200 baud AX-25 AFSK
HO-68 16 Sep 20:57:43 21:04:51 86° 73° (ENE) 21:12:03 435.675 MHz FM
STRAND 1 16 Sep 21:00:50 21:04:48 23° 296° (WNW) 21:08:46 ?
Oscar 11 16 Sep 21:02:16 21:05:57 27° 68° (ENE) 21:09:39 145.825 FM, Beacon 2401.500 USB
